Вернуться в каталог

SITRO-AIS-41

АктивенНавигацияPO
NORAD 61760·PAYLOAD·🇷🇺 Russia
Это название спутника еще не подтверждено официальными источниками.

Запущен Nov 4, 2024 с Vostochny Cosmodrome

Loading…

Ближайшие Пролёты (ближайшие 24 часа)

TLE

СвежийSource: Space-Track

Эпоха: Sep 14, 2026, 21:10 UTC

1 61760U 24199AB  26257.88218517  .00273952  29396-4  92606-3 0  9994
2 61760  97.2669 141.4845 0002852 147.4787 212.6662 15.89944086151908

Отслеживайте SITRO-AIS-41 в реальном времени с AllMySat

Download on the App Store